{"data":{"norad_id":68337,"epoch":"2026-09-20T02:52:14.310048Z","epoch_age_seconds":80023,"freshness":"FRESH","line1":"1 68337U 26059S   26263.11961007  .00018558  00000+0  55896-3 0  9995","line2":"2 68337  53.1577 157.3349 0001096  82.4585 277.6542 15.34403655 28051","mean_motion":15.34403655,"eccentricity":0.0001096,"inclination_deg":53.1577,"raan_deg":157.3349,"arg_perigee_deg":82.4585,"mean_anomaly_deg":277.6542,"bstar":0.00055896,"rev_number":2805,"period_min":93.847534532887,"perigee_km":461.94262189872,"apogee_km":463.44213169811,"semimajor_km":6840.8293767984,"source":"CELESTRAK","updated_at":"2026-09-20T09:00:43.887709Z"}}